When you browse on this site, cookies collect data to enhance your experience and personalize the content and advertising you see.
Visit our Privacy Policy to learn more. By continuing to use the site, you agree to this use of cookies and data.
  • în România
  • Lista ţărilor
  • Pe 7 zile
  • Temperatura apei
  • Meteo pe hartă
  • Widget-uri
  • user-avatar
    Intrare

    Meteo pe oră la Larne

    Astăzi, 22 Februarie, Sâmbătă

    Timp Temperatura Precipitaţii Vânt Presiune Umiditate
    00:00 +7°C° 0 mm 12 m/s 745 mmHg 87%
    01:00 +5°C° 0.5 mm 12 m/s 745 mmHg 86%
    02:00 +4°C° 0.5 mm 12 m/s 745 mmHg 85%
    03:00 +3°C° 0.5 mm 12 m/s 745 mmHg 84%
    04:00 +2°C° 0.1 mm 12 m/s 746 mmHg 84%
    05:00 0°C° 0.1 mm 12 m/s 747 mmHg 83%
    06:00 0°C° 0.1 mm 12 m/s 748 mmHg 83%
    07:00 0°C° 0.1 mm 12 m/s 748 mmHg 81%
    08:00 0°C° 0.1 mm 12 m/s 749 mmHg 80%
    09:00 -1°C° 0.1 mm 13 m/s 749 mmHg 79%
    10:00 0°C° 0.1 mm 13 m/s 750 mmHg 77%
    11:00 0°C° 0.1 mm 14 m/s 751 mmHg 76%
    12:00 0°C° 0.1 mm 14 m/s 752 mmHg 75%
    13:00 0°C° 0.1 mm 14 m/s 753 mmHg 75%
    14:00 0°C° 0.1 mm 13 m/s 753 mmHg 75%
    15:00 0°C° 0.1 mm 13 m/s 754 mmHg 75%
    16:00 0°C° 0 mm 12 m/s 754 mmHg 77%
    17:00 -1°C° 0 mm 12 m/s 754 mmHg 79%
    18:00 -1°C° 0 mm 11 m/s 755 mmHg 81%
    19:00 0°C° 0.1 mm 10 m/s 755 mmHg 84%
    20:00 0°C° 0.1 mm 9 m/s 755 mmHg 87%
    21:00 0°C° 0.1 mm 9 m/s 755 mmHg 91%
    22:00 0°C° 0.2 mm 8 m/s 755 mmHg 92%
    23:00 0°C° 0.2 mm 8 m/s 755 mmHg 93%

    Mâine, 23 Februarie, Duminică

    Timp Temperatura Precipitaţii Vânt Presiune Umiditate
    00:00 0°C° 0.2 mm 7 m/s 755 mmHg 94%
    01:00 0°C° 0.2 mm 7 m/s 754 mmHg 95%
    02:00 +1°C° 0.2 mm 6 m/s 753 mmHg 96%
    03:00 +1°C° 0.2 mm 6 m/s 752 mmHg 97%
    04:00 +1°C° 0.7 mm 6 m/s 752 mmHg 97%
    05:00 +1°C° 0.7 mm 6 m/s 751 mmHg 97%
    06:00 +1°C° 0.7 mm 6 m/s 751 mmHg 97%
    07:00 0°C° 0.2 mm 7 m/s 752 mmHg 94%
    08:00 0°C° 0.2 mm 8 m/s 753 mmHg 90%
    09:00 0°C° 0.2 mm 9 m/s 754 mmHg 86%
    10:00 0°C° 0 mm 9 m/s 755 mmHg 81%
    11:00 +1°C° 0 mm 10 m/s 756 mmHg 75%
    12:00 +2°C° 0 mm 11 m/s 758 mmHg 69%
    13:00 +2°C° 0 mm 10 m/s 758 mmHg 68%
    14:00 +2°C° 0 mm 9 m/s 759 mmHg 68%
    15:00 +4°C° 0 mm 8 m/s 759 mmHg 67%
    16:00 +3°C° 0 mm 7 m/s 760 mmHg 72%
    17:00 +1°C° 0 mm 6 m/s 760 mmHg 77%
    18:00 0°C° 0 mm 4 m/s 761 mmHg 82%
    19:00 0°C° 0 mm 4 m/s 760 mmHg 80%
    20:00 0°C° 0 mm 4 m/s 760 mmHg 79%
    21:00 +1°C° 0 mm 4 m/s 760 mmHg 77%
    22:00 0°C° 0.7 mm 5 m/s 759 mmHg 83%
    23:00 -1°C° 0.7 mm 7 m/s 758 mmHg 90%

    Poimâine, 24 Februarie, Luni

    Timp Temperatura Precipitaţii Vânt Presiune Umiditate
    00:00 -2°C° 0.7 mm 8 m/s 757 mmHg 97%
    01:00 -3°C° 3.9 mm 10 m/s 754 mmHg 97%
    02:00 -2°C° 3.9 mm 12 m/s 752 mmHg 98%
    03:00 -2°C° 3.9 mm 14 m/s 749 mmHg 99%
    04:00 0°C° 2.3 mm 12 m/s 747 mmHg 99%
    05:00 +2°C° 2.3 mm 10 m/s 745 mmHg 99%
    06:00 +5°C° 2.3 mm 8 m/s 743 mmHg 99%
    07:00 +5°C° 0.1 mm 9 m/s 742 mmHg 96%
    08:00 +4°C° 0.1 mm 11 m/s 741 mmHg 94%
    09:00 +4°C° 0.1 mm 13 m/s 739 mmHg 92%
    10:00 +3°C° 0 mm 14 m/s 740 mmHg 89%
    11:00 +2°C° 0 mm 16 m/s 740 mmHg 87%
    12:00 +1°C° 0 mm 17 m/s 740 mmHg 85%
    13:00 +1°C° 0 mm 17 m/s 741 mmHg 84%
    14:00 +1°C° 0 mm 17 m/s 741 mmHg 83%
    15:00 +1°C° 0 mm 16 m/s 742 mmHg 82%
    16:00 +1°C° 0.1 mm 16 m/s 742 mmHg 82%
    17:00 0°C° 0.1 mm 16 m/s 742 mmHg 83%
    18:00 0°C° 0.1 mm 16 m/s 743 mmHg 83%
    19:00 0°C° 0.1 mm 15 m/s 743 mmHg 84%
    20:00 0°C° 0.1 mm 14 m/s 744 mmHg 85%
    21:00 0°C° 0.1 mm 13 m/s 744 mmHg 86%
    22:00 -1°C° 0.3 mm 12 m/s 745 mmHg 85%
    23:00 -1°C° 0.3 mm 12 m/s 745 mmHg 84%

    25 Februarie, Marţi

    Timp Temperatura Precipitaţii Vânt Presiune Umiditate
    00:00 -1°C° 0.3 mm 11 m/s 745 mmHg 83%
    01:00 -1°C° 0.1 mm 11 m/s 745 mmHg 83%
    02:00 -2°C° 0.1 mm 10 m/s 745 mmHg 83%
    03:00 -2°C° 0.1 mm 10 m/s 745 mmHg 83%
    04:00 -2°C° 0 mm 10 m/s 745 mmHg 82%
    05:00 -2°C° 0 mm 10 m/s 745 mmHg 82%
    06:00 -2°C° 0 mm 10 m/s 745 mmHg 82%
    07:00 -1°C° 0 mm 9 m/s 744 mmHg 81%
    08:00 0°C° 0 mm 9 m/s 744 mmHg 80%
    09:00 0°C° 0 mm 9 m/s 744 mmHg 79%
    10:00 +1°C° 0.1 mm 9 m/s 744 mmHg 79%
    11:00 +1°C° 0.1 mm 8 m/s 744 mmHg 79%
    12:00 +2°C° 0.1 mm 8 m/s 744 mmHg 79%
    13:00 +2°C° 0.3 mm 8 m/s 743 mmHg 80%
    14:00 +1°C° 0.3 mm 8 m/s 743 mmHg 82%
    15:00 +1°C° 0.3 mm 8 m/s 743 mmHg 84%
    16:00 0°C° 0.2 mm 8 m/s 743 mmHg 84%
    17:00 -1°C° 0.2 mm 8 m/s 743 mmHg 84%
    18:00 -1°C° 0.2 mm 8 m/s 742 mmHg 84%
    19:00 -3°C° 0.1 mm 9 m/s 743 mmHg 84%
    20:00 -3°C° 0.1 mm 9 m/s 743 mmHg 84%
    21:00 -3°C° 0.1 mm 9 m/s 743 mmHg 84%
    22:00 -3°C° 0 mm 9 m/s 744 mmHg 84%
    23:00 -4°C° 0 mm 9 m/s 744 mmHg 85%

    26 Februarie, Miercuri

    Timp Temperatura Precipitaţii Vânt Presiune Umiditate
    00:00 -4°C° 0 mm 9 m/s 744 mmHg 85%
    01:00 -4°C° 0.1 mm 9 m/s 745 mmHg 85%
    02:00 -3°C° 0.1 mm 9 m/s 745 mmHg 85%
    03:00 -3°C° 0.1 mm 9 m/s 746 mmHg 86%
    04:00 -3°C° 0.1 mm 9 m/s 747 mmHg 84%
    05:00 -3°C° 0.1 mm 9 m/s 747 mmHg 83%
    06:00 -1°C° 0.1 mm 9 m/s 748 mmHg 82%
    07:00 -2°C° 0.1 mm 10 m/s 749 mmHg 80%
    08:00 -2°C° 0.1 mm 10 m/s 749 mmHg 79%
    09:00 -1°C° 0.1 mm 11 m/s 750 mmHg 78%
    10:00 +1°C° 0.1 mm 11 m/s 751 mmHg 72%
    11:00 +1°C° 0.1 mm 11 m/s 752 mmHg 67%
    12:00 +2°C° 0.1 mm 11 m/s 752 mmHg 62%
    13:00 +2°C° 0 mm 10 m/s 753 mmHg 64%
    14:00 +2°C° 0 mm 10 m/s 753 mmHg 65%
    15:00 +2°C° 0 mm 9 m/s 753 mmHg 67%
    16:00 +1°C° 0 mm 8 m/s 753 mmHg 73%
    17:00 +1°C° 0 mm 6 m/s 753 mmHg 79%
    18:00 0°C° 0 mm 5 m/s 753 mmHg 85%
    19:00 0°C° 0 mm 5 m/s 752 mmHg 87%
    20:00 0°C° 0 mm 5 m/s 752 mmHg 89%
    21:00 0°C° 0 mm 5 m/s 752 mmHg 91%
    22:00 0°C° 0 mm 5 m/s 751 mmHg 91%
    23:00 0°C° 0 mm 5 m/s 750 mmHg 91%

    27 Februarie, Joi

    Timp Temperatura Precipitaţii Vânt Presiune Umiditate
    00:00 0°C° 0 mm 5 m/s 749 mmHg 91%
    01:00 -1°C° 0.5 mm 7 m/s 747 mmHg 93%
    02:00 -1°C° 0.5 mm 8 m/s 746 mmHg 95%
    03:00 -1°C° 0.5 mm 9 m/s 744 mmHg 97%
    04:00 -2°C° 1.8 mm 10 m/s 743 mmHg 97%
    05:00 -2°C° 1.8 mm 10 m/s 741 mmHg 98%
    06:00 -2°C° 1.8 mm 11 m/s 740 mmHg 98%
    07:00 0°C° 0.7 mm 10 m/s 739 mmHg 98%
    08:00 0°C° 0.7 mm 9 m/s 739 mmHg 98%
    09:00 +1°C° 0.7 mm 8 m/s 738 mmHg 98%
    10:00 +3°C° 0.1 mm 7 m/s 739 mmHg 97%
    11:00 +5°C° 0.1 mm 7 m/s 739 mmHg 96%
    12:00 +7°C° 0.1 mm 6 m/s 739 mmHg 96%
    13:00 +6°C° 0.1 mm 7 m/s 739 mmHg 93%
    14:00 +5°C° 0.1 mm 8 m/s 740 mmHg 90%
    15:00 +3°C° 0.1 mm 10 m/s 740 mmHg 87%
    16:00 +2°C° 0 mm 9 m/s 741 mmHg 88%
    17:00 +2°C° 0 mm 9 m/s 742 mmHg 89%
    18:00 +1°C° 0 mm 9 m/s 742 mmHg 90%
    19:00 +1°C° 0 mm 8 m/s 743 mmHg 91%
    20:00 0°C° 0 mm 7 m/s 744 mmHg 92%
    21:00 +1°C° 0 mm 6 m/s 745 mmHg 92%
    22:00 -1°C° 0 mm 6 m/s 746 mmHg 92%
    23:00 -1°C° 0 mm 6 m/s 746 mmHg 92%
    Arată mai mult